| time (UTC) | temp C | wind direction | speed KPH | gust KPH | rain 1hr cm | rain 24hr cm | rain mn cm | humidity % | barometer mb |
| 20260504110402 | 7 | 167 | 8.0 | 22.5 | 0.00 | 0.00 | 0.00 | 84 | 1005.0 |
| 20260504100403 | 6 | 181 | 6.4 | 19.3 | 0.00 | 0.00 | 0.00 | 85 | 1005.4 |
| 20260504080403 | 6 | 205 | 3.2 | 12.9 | 0.00 | 0.00 | 0.00 | 74 | 1005.9 |
| 20260504050403 | 5 | 167 | 6.4 | 19.3 | 0.00 | 0.00 | 0.00 | 62 | 1006.3 |
| 20260504045403 | 5 | 178 | 3.2 | 14.5 | 0.00 | 0.00 | 0.00 | 64 | 1006.5 |
| 20260504044403 | 5 | 179 | 6.4 | 16.1 | 0.00 | 0.00 | 0.00 | 65 | 1006.6 |
| 20260504043402 | 4 | 176 | 6.4 | 11.3 | 0.00 | 0.00 | 0.00 | 65 | 1006.6 |
| 20260504042403 | 4 | 181 | 6.4 | 12.9 | 0.00 | 0.00 | 0.00 | 67 | 1006.7 |
| 20260504041403 | 3 | 170 | 4.8 | 11.3 | 0.00 | 0.00 | 0.00 | 71 | 1006.7 |
| 20260504040402 | 2 | 181 | 3.2 | 8.0 | 0.00 | 0.00 | 0.00 | 73 | 1006.7 |
| 20260504035424 | 2 | 180 | 4.8 | 8.0 | 0.00 | 0.00 | 0.00 | 75 | 1006.7 |
| 20260504034403 | 2 | 179 | 3.2 | 8.0 | 0.00 | 0.00 | 0.00 | 74 | 1006.7 |
| 20260504033404 | 2 | 182 | 4.8 | 11.3 | 0.00 | 0.00 | 0.00 | 73 | 1006.7 |
| 20260504032404 | 2 | 175 | 1.6 | 8.0 | 0.00 | 0.00 | 0.00 | 73 | 1006.7 |
| 20260504031404 | 2 | 177 | 1.6 | 8.0 | 0.00 | 0.00 | 0.00 | 73 | 1006.8 |
| 20260504030404 | 2 | 179 | 3.2 | 8.0 | 0.00 | 0.00 | 0.00 | 71 | 1006.8 |
| 20260504025426 | 3 | 177 | 0.0 | 8.0 | 0.00 | 0.00 | 0.00 | 70 | 1006.9 |
| 20260504024403 | 3 | 187 | 0.0 | 8.0 | 0.00 | 0.00 | 0.00 | 68 | 1006.9 |
| 20260504023404 | 3 | 189 | 3.2 | 12.9 | 0.00 | 0.00 | 0.00 | 69 | 1007.0 |
| 20260504022425 | 2 | 182 | 3.2 | 12.9 | 0.00 | 0.00 | 0.00 | 70 | 1007.1 |
| 20260504021405 | 2 | 181 | 4.8 | 8.0 | 0.00 | 0.00 | 0.00 | 71 | 1007.1 |
| 20260504020425 | 2 | 182 | 0.0 | 8.0 | 0.00 | 0.00 | 0.00 | 72 | 1007.0 |
| 20260504015404 | 2 | 181 | 4.8 | 6.4 | 0.00 | 0.00 | 0.00 | 72 | 1007.1 |
| 20260504014404 | 2 | 181 | 3.2 | 11.3 | 0.00 | 0.03 | 0.00 | 71 | 1007.1 |
| 20260504013405 | 2 | 181 | 3.2 | 6.4 | 0.00 | 0.03 | 0.00 | 72 | 1007.1 |
| 20260504012425 | 2 | 181 | 3.2 | 8.0 | 0.00 | 0.03 | 0.00 | 72 | 1007.1 |
| 20260504011404 | 3 | 181 | 0.0 | 6.4 | 0.00 | 0.03 | 0.00 | 71 | 1007.0 |
| 20260504010403 | 3 | 181 | 0.0 | 6.4 | 0.00 | 0.05 | 0.00 | 69 | 1007.0 |
| 20260504005404 | 3 | 181 | 0.0 | 0.0 | 0.00 | 0.05 | 0.00 | 68 | 1006.9 |
| 20260504004403 | 3 | 180 | 0.0 | 4.8 | 0.00 | 0.05 | 0.00 | 66 | 1006.8 |
| 20260504003404 | 4 | 180 | 1.6 | 4.8 | 0.00 | 0.08 | 0.00 | 65 | 1006.8 |
| 20260504002404 | 5 | 180 | 1.6 | 4.8 | 0.00 | 0.08 | 0.00 | 63 | 1006.8 |
| 20260504001404 | 6 | 180 | 1.6 | 6.4 | 0.00 | 0.08 | 0.00 | 61 | 1006.7 |
| 20260504000425 | 7 | 181 | 0.0 | 0.0 | 0.00 | 0.08 | 0.00 | 58 | 1006.7 |
| 20260503235403 | 7 | 181 | 0.0 | 6.4 | 0.00 | 0.08 | 0.00 | 56 | 1006.6 |
| 20260503234404 | 8 | 180 | 0.0 | 8.0 | 0.00 | 0.08 | 0.00 | 51 | 1006.6 |
| 20260503233403 | 9 | 180 | 4.8 | 8.0 | 0.00 | 0.08 | 0.00 | 50 | 1006.5 |
| 20260503232425 | 9 | 183 | 3.2 | 8.0 | 0.00 | 0.08 | 0.00 | 50 | 1006.5 |
| 20260503231404 | 8 | 191 | 0.0 | 4.8 | 0.00 | 0.08 | 0.00 | 52 | 1006.5 |
| 20260503230403 | 8 | 191 | 0.0 | 8.0 | 0.00 | 0.08 | 0.00 | 52 | 1006.5 |
| 20260503225404 | 8 | 270 | 0.0 | 4.8 | 0.00 | 0.10 | 0.00 | 52 | 1006.6 |
| 20260503224425 | 8 | 270 | 0.0 | 6.4 | 0.00 | 0.10 | 0.00 | 50 | 1006.5 |
| 20260503223404 | 8 | 274 | 0.0 | 6.4 | 0.00 | 0.10 | 0.00 | 49 | 1006.5 |
| 20260503222404 | 9 | 275 | 0.0 | 6.4 | 0.00 | 0.10 | 0.00 | 48 | 1006.5 |
| 20260503221403 | 9 | 301 | 0.0 | 6.4 | 0.00 | 0.10 | 0.00 | 50 | 1006.5 |
| 20260503220404 | 9 | 302 | 3.2 | 8.0 | 0.00 | 0.10 | 0.00 | 48 | 1006.5 |
| 20260503215403 | 9 | 303 | 0.0 | 8.0 | 0.00 | 0.10 | 0.00 | 48 | 1006.5 |
| 20260503214404 | 9 | 266 | 0.0 | 6.4 | 0.00 | 0.10 | 0.00 | 50 | 1006.6 |
| 20260503213424 | 9 | 266 | 1.6 | 11.3 | 0.00 | 0.10 | 0.00 | 48 | 1006.6 |
| 20260503212404 | 9 | 332 | 1.6 | 12.9 | 0.00 | 0.10 | 0.00 | 50 | 1006.6 |
| 20260503211404 | 9 | 269 | 0.0 | 9.7 | 0.00 | 0.10 | 0.00 | 48 | 1006.5 |
| 20260503210445 | 9 | 291 | 3.2 | 9.7 | 0.00 | 0.10 | 0.00 | 48 | 1006.5 |
| 20260503205404 | 9 | 287 | 0.0 | 16.1 | 0.00 | 0.10 | 0.00 | 49 | 1006.5 |
| 20260503204403 | 10 | 292 | 4.8 | 12.9 | 0.00 | 0.10 | 0.00 | 47 | 1006.5 |
| 20260503203404 | 9 | 273 | 1.6 | 14.5 | 0.00 | 0.10 | 0.00 | 52 | 1006.6 |
| 20260503202424 | 8 | 263 | 6.4 | 12.9 | 0.00 | 0.10 | 0.00 | 49 | 1006.7 |
| 20260503201404 | 8 | 309 | 4.8 | 16.1 | 0.00 | 0.10 | 0.00 | 51 | 1006.8 |
| 20260503200404 | 8 | 231 | 4.8 | 20.9 | 0.00 | 0.10 | 0.00 | 52 | 1006.9 |
| 20260503195403 | 8 | 273 | 9.7 | 17.7 | 0.00 | 0.10 | 0.00 | 52 | 1007.0 |
| 20260503194404 | 8 | 253 | 3.2 | 12.9 | 0.00 | 0.10 | 0.00 | 55 | 1007.1 |
| 20260503193403 | 8 | 248 | 8.0 | 16.1 | 0.00 | 0.10 | 0.00 | 54 | 1007.3 |
| 20260503192403 | 8 | 272 | 4.8 | 22.5 | 0.00 | 0.10 | 0.00 | 53 | 1007.3 |
| 20260503191404 | 9 | 293 | 8.0 | 19.3 | 0.00 | 0.10 | 0.00 | 51 | 1007.3 |
| 20260503190403 | 10 | 310 | 4.8 | 20.9 | 0.00 | 0.10 | 0.00 | 52 | 1007.2 |
| 20260503185404 | 9 | 255 | 4.8 | 24.1 | 0.00 | 0.10 | 0.00 | 53 | 1007.4 |
| 20260503184403 | 8 | 272 | 8.0 | 17.7 | 0.00 | 0.10 | 0.00 | 54 | 1007.4 |
| 20260503183425 | 8 | 347 | 1.6 | 12.9 | 0.00 | 0.10 | 0.00 | 55 | 1007.4 |
| 20260503182404 | 8 | 256 | 4.8 | 16.1 | 0.00 | 0.10 | 0.00 | 56 | 1007.6 |
| 20260503181403 | 8 | 270 | 6.4 | 12.9 | 0.00 | 0.10 | 0.00 | 56 | 1007.6 |
| 20260503180404 | 8 | 306 | 3.2 | 17.7 | 0.00 | 0.10 | 0.00 | 55 | 1007.7 |
| 20260503175403 | 8 | 265 | 12.9 | 17.7 | 0.00 | 0.10 | 0.00 | 55 | 1007.8 |
| 20260503174404 | 8 | 274 | 4.8 | 16.1 | 0.00 | 0.10 | 0.00 | 56 | 1007.8 |
| 20260503173403 | 8 | 275 | 6.4 | 16.1 | 0.00 | 0.10 | 0.00 | 57 | 1007.8 |
| 20260503172424 | 7 | 297 | 6.4 | 17.7 | 0.00 | 0.10 | 0.00 | 56 | 1007.9 |
| 20260503171425 | 8 | 288 | 4.8 | 19.3 | 0.00 | 0.10 | 0.00 | 57 | 1007.9 |
| 20260503170404 | 7 | 253 | 9.7 | 20.9 | 0.00 | 0.10 | 0.00 | 56 | 1008.0 |
| 20260503150404 | 8 | 274 | 12.9 | 24.1 | 0.00 | 0.10 | 0.00 | 58 | 1008.8 |
| 20260503131403 | 5 | 290 | 1.6 | 17.7 | 0.00 | 0.10 | 0.00 | 82 | 1009.5 |
| 20260503130403 | 6 | 274 | 4.8 | 12.9 | 0.00 | 0.13 | 0.00 | 80 | 1009.5 |